Regional Weather Roundup
Issued by NWS

Home | Current Version | Previous Version | Graphics & Text | Print | Product List | Glossary On
Versions: 1 2 3 4 5 6 7 8 9 10 11 12 13 14 15 16 17 18 19 20 21 22 23 24 25 26 27 28 29 30 31 32 33 34 35 36 37 38 39 40 41 42 43 44 45 46 47 48 49 50
000
ASUS43 KMKX 211100
RWRWI

WISCONSIN REGIONAL WEATHER ROUNDUP
NATIONAL WEATHER SERVICE MILWAUKEE/SULLIVAN WI
600 AM CDT SUN SEP 21 2014

NOTE: "FAIR" INDICATES FEW OR NO CLOUDS BELOW 12,000 FEET WITH NO
SIGNIFICANT WEATHER AND/OR OBSTRUCTIONS TO VISIBILITY.

WIZ001-002-006>008-014>016-023>028-211200-
NORTHWEST WISCONSIN

CITY           SKY/WX    TMP DP  RH WIND       PRES   REMARKS
SUPERIOR ARPT  MOCLDY    51  50  96 NE3       29.93R
ASHLAND        CLOUDY    51  48  89 N13       29.91R
HAYWARD        LGT RAIN  50  49  96 N9G18     29.89R
SIREN          CLOUDY    52  50  94 N8        29.91R
RICE LAKE      CLOUDY    52  49  91 W10       29.86R
LADYSMITH      LGT RAIN  54  52  94 NW10      29.83R
EAU CLAIRE     LGT RAIN  53  49  86 NW14G21   29.84R
MENOMONIE      CLOUDY    54  48  80 NW16G25   29.86R
NEW RICHMOND   LGT RAIN  51  50  95 NW13G23   29.91R
OSCEOLA        LGT RAIN  52  52 100 NW13      29.95R
$$

WIZ003>005-009-010-017-018-211200-
NORTH CENTRAL WISCONSIN

CITY           SKY/WX    TMP DP  RH WIND       PRES   REMARKS
WOODRUFF       LGT RAIN  53  51  93 N14G20    29.78R
RHINELANDER    LGT RAIN  51  50  96 N5        29.78R
EAGLE RIVER    RAIN      51  51  99 N12       29.77R
LAND O LAKES   LGT RAIN  51  49  95 N9G17     29.79R
PHILLIPS       RAIN      52  52  98 NW7       29.79R
TOMAHAWK       LGT RAIN  51  50  95 NW5       29.77R
MEDFORD        DRIZZLE   52  51  96 NW7       29.77R
MERRILL        DRIZZLE   52  52  99 N6        29.75R
$$

WIZ029-030-035-036-043>047-211200-
CENTRAL WISCONSIN

CITY           SKY/WX    TMP DP  RH WIND       PRES   REMARKS
WAUSAU         LGT RAIN  53  52  96 NW9       29.74R
MOSINEE        LGT RAIN  52  52 100 NW9       29.75R
MARSHFIELD     LGT RAIN  53  51  93 NW10      29.77R FOG
STEVENS POINT  HVY RAIN  51  49  95 W9        29.74R
WAUPACA        CLOUDY    56  54  94 W12G17    29.71R
WAUTOMA        NOT AVBL
WISC RAPIDS    LGT RAIN  53  51  93 NW10      29.78R
CAMP DOUGLAS   CLOUDY    54  52  91 NW13G23   29.79R
$$

WIZ011>013-019>022-031-037>040-048>050-211200-
NORTHEAST WISCONSIN

CITY           SKY/WX    TMP DP  RH WIND       PRES   REMARKS
ANTIGO         LGT RAIN  51  50  95 N9        29.73R
STURGEON BAY   CLOUDY    55  52  88 N14       29.67R
GREEN BAY      RAIN      56  54  93 NW13      29.68R
MANITOWOC      CLOUDY    57  54  88 W13G20    29.65R
APPLETON       CLOUDY    54  54 100 W15       29.70R
CLINTONVILLE   CLOUDY    54  54 100 NW7       29.69R
OSHKOSH        CLOUDY    55  52  89 W13G22    29.70R
$$

WIZ032>034-041-042-053>061-211200-
SOUTHWEST WISCONSIN

CITY           SKY/WX    TMP DP  RH WIND       PRES   REMARKS
LA CROSSE      MOCLDY    58  47  66 NW22G29   29.85R
SPARTA         CLOUDY    55  46  70 W13G25    29.82R
VIROQUA        CLOUDY    53  48  83 NW15G23   29.83R
BOSCOBEL       PTCLDY    57  49  74 W9        29.84R
PRAIRIE DU CHI PTCLDY    56  50  79 W12       29.86R
PLATTEVILLE    FAIR      55  52  91 W15       29.84S
$$

WIZ056-057-062-063-064-067-068-211200-
SOUTH CENTRAL WISCONSIN

CITY           SKY/WX    TMP DP  RH WIND       PRES   REMARKS
BARABOO/DELLS  CLOUDY    56  47  72 W15G25    29.76R
LONE ROCK      NOT AVBL
WATERTOWN      CLOUDY    55  52  89 W10G18    29.74R
MADISON        CLOUDY    56  50  80 W12G17    29.76S
MIDDLETON      CLOUDY    56  52  86 W14G23    29.77S
MONROE         PTCLDY    54  52  94 W16G23    29.80R
JANESVILLE     CLEAR     55  52  88 W12       29.78S
$$

WIZ051-052-058>065-066-070>072-211200-
SOUTHEAST WISCONSIN

CITY           SKY/WX    TMP DP  RH WIND       PRES   REMARKS
MILWAUKEE      PTCLDY    57  50  77 W13G23    29.72S
WAUKESHA       MOCLDY    54  50  87 W17G23    29.74R
MILWAUKEE/TIMM PTCLDY    55  48  76 W12       29.72S
RACINE         PTCLDY    56  51  84 W10G20    29.75R
BURLINGTON     CLEAR     54  50  87 W10G20    29.76R
KENOSHA        CLEAR     56  51  84 W13G21    29.75R
FOND DU LAC    CLOUDY    55  50  83 W13G20    29.71R
SHEBOYGAN      CLOUDY    56  51  84 W17G23    29.67S
WEST BEND      CLOUDY    55  48  76 W17G25    29.70S
JUNEAU         CLOUDY    55  50  83 W13G18    29.74R
$$

LSZ147-162-211200-
LAKE SUPERIOR

STATION/POSITION TIME  TEMP    WIND        PRES    WAVE
                       AIR SEA DIR/SP/G            HT/PER
                 (UTC) (F)     (DEG/KT/KT) (MB)    (FT/S)
W MID LAKE BUOY  0950   49 46   20/ 12/ 14 1010.6R   2/ 4
DEVILS ISLAND    1000   52      50/ 17/ 19 1011.7R
PORT WING        1040   52      40/ 13/ 16 1013.2R
SAXON HARBOR     1000   54      40/ 18/ 23 1010.8R
$$

LMZ867-665-643>646-211200-
LAKE MICHIGAN

STATION/POSITION TIME  TEMP    WIND        PRES    WAVE
                       AIR SEA DIR/SP/G            HT/PER
                 (UTC) (F)     (DEG/KT/KT) (MB)    (FT/S)
N MID LAKE BUOY  0950   56 58  350/ 16/ 19 1002.5F   2/ 3
NORTHPORT PIER   1000   56     340/ 15/ 18 1003.7S
SISTER BAY       1012           30/ 10/ 14   N/A
KEWAUNEE LAKESHO 1000   56     310/  2/  5 1002.6F
SHEBOYGAN LAKESH 1000   58 53  270/ 12/ 16 1004.7R
PORT WASHINGTON  1000   58     280/  9/ 16 1006.1R
ATWATER BUOY     1000   58     260/ 14/ 16 1007.4R
MILWAUKEE LAKESH 1000   58     270/ 11/ 15   N/A
S MID LAKE BUOY  0950   62 63  270/ 23/ 27 1005.4R   4/ 4
KENOSHA   LAKESH 1000   58     270/ 12/ 17 1007.1R
$$

TC  - TEMPERATURE IN CELSIUS
VSB - VISIBILITY IN STATUTE MILES
WCI - WIND CHILL INDEX
HX  - HEAT INDEX




USA.gov is the U.S. government's official web portal to all federal, state and local government web resources and services.